Location: Mission Viejo Division
(33.5624°N, 117.5924°W)
Time: 07:16:27
(UTC+00:00)

Iridium 921 - Pass Details

Date: 22 May 2024
Orbit: 444 x 449 km, 86.4° (Epoch: 23 June)

Event Time Altitude Azimuth Distance (km) Brightness Sun altitude
Rises 12:05:46 0° 188° (S) 2,430 7.7 -8.0°
Reaches altitude 10° 12:07:49 10° 192° (SSW) 1,566 6.7 -7.7°
Maximum altitude 12:11:10 60° 273° (W) 519 4.4 -7.1°
Drops below altitude 10° 12:14:35 10° 354° (N) 1,587 7.5 -6.5°
Sets 12:16:40 0° 358° (N) 2,467 8.6 -6.1°
